Location: Newark
(58.8333°N, 23.5833°E)
Time: 02:28:52
(UTC+00:00)

A-11 Canister half - Pass Details

Date: 25 November 2019
Orbit: 1515 x 1685 km, 47.2° (Epoch: 13 December)

Event Time Altitude Azimuth Distance (km) Brightness Sun altitude
Rises 15:49:14 0° 232° (SW) 4,876 13.0 -14.7°
Reaches altitude 10° 15:52:37 10° 225° (SW) 3,908 12.1 -15.1°
Maximum altitude 16:01:34 39° 162° (SSE) 2,359 9.9 -16.3°
Enters shadow 16:08:32 17° 106° (ESE) 3,407 10.3 -17.2°
Drops below altitude 10° 16:10:36 10° 99° (E) 3,951 - -17.4°
Sets 16:14:02 0° 92° (E) 4,934 - -17.8°
